Location: C�mpuri de-Sus
(45.9500°N, 22.5500°E)
Time: 18:51:43
(UTC+00:00)

Cosmos 839 Rocket - Pass Details

Date: 08 December 2023
Orbit: 960 x 2093 km, 65.9° (Epoch: 20 February)

Event Time Altitude Azimuth Distance (km) Brightness Sun altitude
Exits shadow 02:48:25 52° 300° (WNW) 2,485 5.6 -32.0°
Maximum altitude 02:49:40 53° 318° (NW) 2,442 5.7 -31.8°
Drops below altitude 10° 03:01:00 10° 34° (NE) 4,316 7.7 -29.8°
Sets 03:04:18 0° 39° (NE) 5,196 8.2 -29.3°
